Tracking 18852 objects as of 23-Nov-2017
HD Live streaming from Space Station
objects crossing your sky now

FENGYUN 1C DEB

Track FENGYUN 1C DEB now!
10-day predictions


NORAD ID: 31997
Int'l Code: 1999-025CQA
Perigee: 839.8 km
Apogee: 1,308.4 km
Inclination: 102.5 °
Period: 106.6 minutes
Semi major axis: 7445 km
RCS: 0.013 m2 (small)
Launch date: May 10, 1999
Source: People's Republic of China (PRC)
Launch site: Taiyaun Space Center, China (TSC)

Note: This is SATELLITE DEBRIS
aabbcc
Your satellite tracking list
Your tracking list is empty




NASA's NSSDC Master Catalog

Two Line Element Set (TLE):
1 31997U 99025CQA 17326.06261202 +.00001036 +00000-0 +12410-2 0  9992
2 31997 102.5128 272.2518 0314685 009.4991 351.1903 13.51435203218534
Source of the keplerian elements: AFSPC